Regional Weather Roundup
Issued by NWS Little Rock, AR

Home | Current Version | Previous Version | Text Only | Print | Product List | Glossary Off
Versions: 1 2 3 4 5 6 7 8 9 10 11 12 13 14 15 16 17 18 19 20 21 22 23 24 25 26 27 28 29 30 31

000
ASUS44 KLZK 181812
RWRLZK

WEATHER ROUNDUP FOR ARKANSAS
NATIONAL WEATHER SERVICE LITTLE ROCK AR
1200 PM CST SAT FEB 18 2017

NOTE: "FAIR" INDICATES FEW OR NO CLOUDS BELOW 12,000 FEET WITH NO
SIGNIFICANT WEATHER AND/OR OBSTRUCTIONS TO VISIBILITY.

ARZ001-003-010-029-181900-
NORTHWEST ARKANSAS

CITY           SKY/WX    TMP DP  RH WIND       PRES   REMARKS
FAYETTEVILLE   MOSUNNY   65  50  58 W8        29.86S
6HR MIN TEMP:  40; 6HR MAX TEMP:  67;

FORT SMITH     SUNNY     62  52  69 NW3       29.88S
6HR MIN TEMP:  46; 6HR MAX TEMP:  62; 6HR PCP:  0.24;

HARRISON       MOSUNNY   64  46  52 SE6       29.86F
6HR MIN TEMP:  49; 6HR MAX TEMP:  64;

BENTONVILLE    MOSUNNY   64  48  55 W7        29.87F
6HR MIN TEMP:  48; 6HR MAX TEMP:  64;

ROGERS         PTSUNNY   65  51  60 W12       29.87S
6HR MIN TEMP:  47; 6HR MAX TEMP:  65;

SILOAM SPGS    PTSUNNY   66  50  55 NW7       29.86F
6HR MIN TEMP:  48; 6HR MAX TEMP:  66;

HIGHFILL       PTSUNNY   66  50  56 SW9       29.86S
6HR MIN TEMP:  46; 6HR MAX TEMP:  67;

SPRINGDALE     MOSUNNY   66  50  55 SW7       29.87F
$$

ARZ004-005-016-181900-
NORTH CENTRAL ARKANSAS

CITY           SKY/WX    TMP DP  RH WIND       PRES   REMARKS
BATESVILLE     CLOUDY    57  52  82 S5        29.91F
6HR MIN TEMP:  52; 6HR MAX TEMP:  57;

FLIPPIN        CLOUDY    61  45  55 CALM      29.85F
6HR MIN TEMP:  50; 6HR MAX TEMP:  61;

MTN HOME       MOSUNNY   60  46  59 CALM      29.86F
6HR MIN TEMP:  50; 6HR MAX TEMP:  60;

$$

ARZ040-041-181900-
WEST CENTRAL ARKANSAS

CITY           SKY/WX    TMP DP  RH WIND       PRES   REMARKS
MENA           CLOUDY    63  59  88 S3        29.89S
MOUNT IDA      CLOUDY    60  55  83 SE5       29.86F
6HR MIN TEMP:  48; 6HR MAX TEMP:  61; 6HR PCP:  0.23;

$$

ARZ009-017-025-026-028-181900-
NORTHEAST ARKANSAS

CITY           SKY/WX    TMP DP  RH WIND       PRES   REMARKS
CORNING        CLOUDY    55  55 100 S7        29.91F
JONESBORO      CLOUDY    57  53  86 S6        29.91F
6HR MIN TEMP:  50; 6HR MAX TEMP:  57; 6HR PCP: TRACE;

NEWPORT        CLOUDY    56  52  86 S10       29.91F
6HR MIN TEMP:  50; 6HR MAX TEMP:  56;

WALNUT RIDGE   CLOUDY    57  52  82 S9        29.90F
6HR MIN TEMP:  50; 6HR MAX TEMP:  57; 6HR PCP:  0.01;

BLYTHEVILLE    CLOUDY    58  53  84 MISG      29.92F
6HR MIN TEMP:  50; 6HR MAX TEMP:  58; 6HR PCP:  0.04;

$$

ARZ022-023-033-042-044-181900-
CENTRAL ARKANSAS

CITY           SKY/WX    TMP DP  RH WIND       PRES   REMARKS
LITTLE ROCK    CLOUDY    60  55  83 S6        29.90F
6HR MIN TEMP:  52; 6HR MAX TEMP:  60;

N LITTLE ROCK    N/A     60  54  81 CALM      29.91S
6HR MIN TEMP:  52; 6HR MAX TEMP:  60;

JACKSONVILLE   CLOUDY    61  53  76 E3        29.89F
6HR MIN TEMP:  54; 6HR MAX TEMP:  61;

SEARCY         CLOUDY    60  54  80 SW3       29.92F
6HR MIN TEMP:  50; 6HR MAX TEMP:  60;

HOT SPRINGS    CLOUDY    57  55  93 CALM      29.90F
6HR MIN TEMP:  54; 6HR MAX TEMP:  57; 6HR PCP:  0.08;

RUSSELLVILLE   MOSUNNY   63  52  67 S6        29.86F
6HR MIN TEMP:  47; 6HR MAX TEMP:  64;

CLINTON        FAIR      61  52  72 CALM      29.88F
$$

ARZ036-181900-
EAST ARKANSAS

CITY           SKY/WX    TMP DP  RH WIND       PRES   REMARKS
WEST MEMPHIS   CLOUDY    58  54  86 W3        29.91F
6HR MIN TEMP:  50; 6HR MAX TEMP:  59;

$$

ARZ050-053-066-070-073-181900-
SOUTHWEST ARKANSAS

CITY           SKY/WX    TMP DP  RH WIND       PRES   REMARKS
ARKADELPHIA    CLOUDY    61  57  88 S8        29.90F
6HR MIN TEMP:  47; 6HR MAX TEMP:  58; 6HR PCP:  0.16;

CAMDEN         CLOUDY    59  54  82 SE6       29.92F HAZE
TEXARKANA      CLOUDY    57  57 100 E7        29.89F
6HR MIN TEMP:  52; 6HR MAX TEMP:  58; 6HR PCP:  0.01;

EL DORADO      CLOUDY    60  55  83 E5        29.92F
6HR MIN TEMP:  53; 6HR MAX TEMP:  60;

DE QUEEN       CLOUDY    59  57  93 SE7       29.87F
6HR MIN TEMP:  53; 6HR MAX TEMP:  59;

$$

ARZ056-057-069-181900-
SOUTHEAST ARKANSAS

CITY           SKY/WX    TMP DP  RH WIND       PRES   REMARKS
PINE BLUFF     LGT RAIN  60  55  83 SW9       29.92F
6HR MIN TEMP:  50; 6HR MAX TEMP:  63; 6HR PCP: TRACE;

STUTTGART      CLOUDY    61  48  63 SW6       29.92F
6HR MIN TEMP:  52; 6HR MAX TEMP:  61;

MONTICELLO     CLOUDY    62  52  69 SW6       29.93F
6HR MIN TEMP:  53; 6HR MAX TEMP:  62;


$$






USA.gov is the U.S. government's official web portal to all federal, state and local government web resources and services.